This demonstration page uses our WeatherBlox Daily Observations layout. Learn more.

Hourly Observations for April 3, 2019

Temp ( °F °C ) Dew Point ( °F °C ) Humidity (%) Winds ( mph kmh ) Pressure ( in mb ) Visibility ( mi km ) Precip ( " mm )
12:15 am 00:15 Clear 39 4 36 2 87 87 W 3 6 30.12 1020 10 16.09344 0 0
12:35 am 00:35 Clear 37 3 34 1 87 87 WNW 5 7 30.12 1020 10 16.09344 0 0
12:55 am 00:55 Clear 37 3 34 1 87 87 WNW 5 7 30.12 1020 10 16.09344 0 0
1:15 am 01:15 Clear 37 3 34 1 87 87 WNW 3 6 30.12 1020 10 16.09344 0 0
1:35 am 01:35 Clear 36 2 34 1 93 93 NW 3 6 30.12 1020 10 16.09344 0 0
1:55 am 01:55 Clear 36 2 34 1 93 93 Calm 30.12 1020 10 16.09344 0 0
2:15 am 02:15 Clear 34 1 32 0 93 93 WNW 5 7 30.12 1020 10 16.09344 0 0
2:35 am 02:35 Clear 36 2 34 1 93 93 WNW 5 7 30.12 1020 10 16.09344 0 0
2:55 am 02:55 Clear 36 2 32 0 87 87 WNW 6 9 30.12 1020 10 16.09344 0 0
3:15 am 03:15 Clear 34 1 32 0 93 93 W 3 6 30.12 1020 10 16.09344 0 0
3:35 am 03:35 Clear 34 1 32 0 93 93 WNW 3 6 30.12 1020 10 16.09344 0 0
3:55 am 03:55 Clear 32 0 32 0 100 100 WNW 5 7 30.12 1020 10 16.09344 0 0
4:15 am 04:15 Clear 32 0 32 0 100 100 Calm 30.12 1020 10 16.09344 0 0
4:35 am 04:35 Clear 32 0 32 0 100 100 Calm 30.15 1021 10 16.09344 0 0
4:55 am 04:55 Clear 34 1 32 0 93 93 Calm 30.15 1021 10 16.09344 0 0
5:15 am 05:15 Clear 32 0 32 0 100 100 Calm 30.15 1021 10 16.09344 0 0
5:35 am 05:35 Clear 32 0 32 0 100 100 Calm 30.15 1021 10 16.09344 0 0
5:55 am 05:55 Clear 32 0 32 0 100 100 S 6 9 30.15 1021 10 16.09344 0 0
6:15 am 06:15 Clear 32 0 30 -1 93 93 SW 6 9 30.15 1021 10 16.09344 0 0
6:35 am 06:35 Clear 30 -1 30 -1 100 100 W 3 6 30.18 1022 10 16.09344 0 0
6:55 am 06:55 Sunny 32 0 32 0 100 100 Calm 30.18 1022 10 16.09344 0 0
7:15 am 07:15 Sunny 32 0 30 -1 93 93 Calm 30.18 1022 10 16.09344 0 0
7:35 am 07:35 Sunny 32 0 32 0 100 100 Calm 30.18 1022 10 16.09344 0 0
7:55 am 07:55 Sunny 34 1 32 0 93 93 Calm 30.21 1023 10 16.09344 0 0
8:15 am 08:15 Sunny 36 2 32 0 87 87 Calm 30.21 1023 10 16.09344 0 0
8:35 am 08:35 Sunny 37 3 34 1 87 87 Calm 30.21 1023 10 16.09344 0 0
8:55 am 08:55 Sunny 41 5 34 1 76 76 SSW 3 6 30.21 1023 10 16.09344 0 0
9:15 am 09:15 Sunny 45 7 36 2 71 71 Calm 30.21 1023 10 16.09344 0 0
9:35 am 09:35 Sunny 48 9 34 1 58 58 SW 6 9 30.21 1023 10 16.09344 0 0
9:55 am 09:55 Sunny 52 11 34 1 50 50 SW 7 11 30.21 1023 10 16.09344 0 0
10:15 am 10:15 Sunny 55 13 34 1 44 44 SW 7 11 30.18 1022 10 16.09344 0 0
10:35 am 10:35 Sunny 57 14 36 2 44 44 SW 7 11 30.18 1022 10 16.09344 0 0
10:55 am 10:55 Sunny 59 15 36 2 42 42 WSW 15 24 30.18 1022 10 16.09344 0 0
11:15 am 11:15 Sunny 61 16 34 1 36 36 WNW 16 26 30.18 1022 10 16.09344 0 0
11:35 am 11:35 Sunny 63 17 34 1 34 34 W 17 28 30.18 1022 10 16.09344 0 0
11:55 am 11:55 Sunny 63 17 36 2 37 37 W 13 20 30.15 1021 10 16.09344 0 0
12:15 pm 12:15 Sunny 64 18 36 2 34 34 WNW 15 24 30.15 1021 10 16.09344 0 0
12:35 pm 12:35 Sunny 64 18 36 2 34 34 W 23 37 30.15 1021 10 16.09344 0 0
12:55 pm 12:55 Sunny 66 19 36 2 32 32 WNW 20 31 30.15 1021 10 16.09344 0 0
1:15 pm 13:15 Sunny 68 20 34 1 28 28 WNW 17 28 30.15 1021 10 16.09344 0 0
1:35 pm 13:35 Sunny 68 20 34 1 28 28 NW 25 41 30.15 1021 10 16.09344 0 0
1:55 pm 13:55 Sunny 68 20 32 0 26 26 WNW 28 44 30.15 1021 10 16.09344 0 0
2:15 pm 14:15 Sunny 68 20 32 0 26 26 WNW 25 41 30.15 1021 10 16.09344 0 0
2:35 pm 14:35 Sunny 68 20 32 0 26 26 NW 21 33 30.15 1021 10 16.09344 0 0
2:55 pm 14:55 Sunny 68 20 30 -1 24 24 NW 18 30 30.12 1020 10 16.09344 0 0
3:15 pm 15:15 Sunny 70 21 32 0 25 25 WNW 14 22 30.12 1020 10 16.09344 0 0
3:35 pm 15:35 Sunny 70 21 30 -1 23 23 NW 21 33 30.12 1020 10 16.09344 0 0
3:55 pm 15:55 Sunny 70 21 30 -1 23 23 WNW 24 39 30.12 1020 10 16.09344 0 0
4:15 pm 16:15 Sunny 70 21 30 -1 23 23 WNW 24 39 30.12 1020 10 16.09344 0 0
4:35 pm 16:35 Sunny 70 21 30 -1 23 23 NNW 20 31 30.12 1020 10 16.09344 0 0
4:55 pm 16:55 Sunny 68 20 30 -1 24 24 NW 28 44 30.15 1021 10 16.09344 0 0
5:15 pm 17:15 Sunny 68 20 30 -1 24 24 NNW 23 37 30.15 1021 10 16.09344 0 0
5:35 pm 17:35 Sunny 68 20 30 -1 24 24 WNW 16 26 30.15 1021 10 16.09344 0 0
5:55 pm 17:55 Sunny 68 20 30 -1 24 24 WNW 18 30 30.15 1021 10 16.09344 0 0
6:15 pm 18:15 Sunny 66 19 30 -1 26 26 NW 14 22 30.18 1022 10 16.09344 0 0
6:35 pm 18:35 Sunny 64 18 30 -1 28 28 NNW 13 20 30.18 1022 10 16.09344 0 0
6:55 pm 18:55 Sunny 64 18 30 -1 28 28 NW 16 26 30.18 1022 10 16.09344 0 0
7:15 pm 19:15 Sunny 63 17 30 -1 30 30 NW 14 22 30.18 1022 10 16.09344 0 0
7:35 pm 19:35 Sunny 63 17 30 -1 30 30 NNW 10 17 30.21 1023 10 16.09344 0 0
7:55 pm 19:55 Clear 61 16 30 -1 31 31 NNW 7 11 30.21 1023 10 16.09344 0 0
8:15 pm 20:15 Clear 59 15 30 -1 34 34 NW 6 9 30.21 1023 10 16.09344 0 0
8:35 pm 20:35 Clear 59 15 28 -2 31 31 NNW 6 9 30.24 1024 10 16.09344 0 0
8:55 pm 20:55 Clear 55 13 30 -1 38 38 NW 7 11 30.24 1024 10 16.09344 0 0
9:15 pm 21:15 Clear 54 12 30 -1 41 41 NW 8 13 30.24 1024 10 16.09344 0 0
9:35 pm 21:35 Clear 57 14 30 -1 36 36 NNW 7 11 30.27 1025 10 16.09344 0 0
9:55 pm 21:55 Clear 57 14 28 -2 33 33 NNW 6 9 30.27 1025 10 16.09344 0 0
10:15 pm 22:15 Clear 55 13 28 -2 36 36 NNW 6 9 30.27 1025 10 16.09344 0 0
10:35 pm 22:35 Clear 54 12 28 -2 38 38 NW 5 7 30.3 1026 10 16.09344 0 0
10:55 pm 22:55 Clear 50 10 30 -1 47 47 NW 6 9 30.3 1026 10 16.09344 0 0
11:15 pm 23:15 Clear 45 7 32 0 61 61 W 6 9 30.33 1027 10 16.09344 0 0
11:35 pm 23:35 Clear 46 8 32 0 57 57 WNW 9 15 30.33 1027 10 16.09344 0 0
11:55 pm 23:55 Clear 52 11 30 -1 44 44 WNW 7 11 30.33 1027 10 16.09344 0 0

Powered by AerisWeather